Find Starlink 4129

NORAD ID: 53251 Int'l Des: 2022-086 Owner: SPXS Country: US Constellation: starlink operational
LEOCIRCULAR

实时位置

正在加载3D地球...

关于 Starlink 4129

正在加载描述...

即将过境

Passes for default location (London). Set your location on the main map for personalized predictions.

高度历史

Loading altitude history...

两行轨道根数

1 53251U 22086K 26121.56184368 -.00000078 00000-0 13172-4 0 9991
2 53251 53.2183 316.7669 0001482 95.8074 264.3087 15.08840925209043
Epoch: May 1, 2026 • Age: 8 hours

当前状态

高度 557.3 km
速度 7.58 km/s
星下点 -48.36°S, 81.84°E
发射日期 Jul 24, 2022
运行时间 3.7 years
类型 internet

技术详情

分类 Payload
质量 297.00 kg
干质量 275.00 kg
总质量 297.00 kg
长度 0.20 m
直径 2.80 m
跨度 9.00 m
形状 Box + pan
制造商 SPXS
平台类型 Starlink
阶段状态 In Orbit
所有者/国家 SPXS/US

Most Searched